TimeEDT,TemperatureF,Dew PointF,Humidity,Sea Level PressureIn,VisibilityMPH,Wind Direction,Wind SpeedMPH,Gust SpeedMPH,PrecipitationIn,Events,Conditions,WindDirDegrees,DateUTC
12:54 AM,75.0,71.1,87,30.20,10.0,SSW,4.6,-,N/A,,Clear,210,2013-07-09 04:54:00
1:54 AM,75.9,72.0,87,30.19,10.0,South,4.6,-,N/A,,Clear,170,2013-07-09 05:54:00
2:54 AM,75.0,72.0,90,30.18,10.0,SSW,4.6,-,N/A,,Clear,200,2013-07-09 06:54:00
3:54 AM,75.9,72.0,87,30.16,10.0,SSW,4.6,-,N/A,,Clear,200,2013-07-09 07:54:00
4:54 AM,75.9,73.0,91,30.17,10.0,SW,3.5,-,N/A,,Scattered Clouds,220,2013-07-09 08:54:00
5:54 AM,75.9,73.0,91,30.18,10.0,SW,3.5,-,N/A,,Clear,230,2013-07-09 09:54:00
6:54 AM,75.9,72.0,87,30.18,10.0,Calm,Calm,-,N/A,,Scattered Clouds,0,2013-07-09 10:54:00
7:54 AM,75.0,72.0,90,30.20,10.0,South,4.6,-,0.00,Rain,Light Rain,190,2013-07-09 11:54:00
8:54 AM,75.0,72.0,90,30.22,10.0,Calm,Calm,-,0.11,,Overcast,0,2013-07-09 12:54:00
9:54 AM,75.9,72.0,87,30.22,10.0,South,5.8,-,0.03,,Mostly Cloudy,180,2013-07-09 13:54:00
10:54 AM,81.0,73.9,79,30.21,10.0,South,5.8,-,N/A,,Scattered Clouds,170,2013-07-09 14:54:00
11:54 AM,84.9,73.0,67,30.20,10.0,SSW,11.5,-,N/A,,Scattered Clouds,210,2013-07-09 15:54:00
12:54 PM,88.0,71.1,57,30.18,10.0,South,11.5,16.1,N/A,,Clear,180,2013-07-09 16:54:00
1:54 PM,88.0,73.0,61,30.17,10.0,SSW,11.5,18.4,N/A,,Scattered Clouds,210,2013-07-09 17:54:00
2:54 PM,87.1,73.9,65,30.15,10.0,South,9.2,-,N/A,,Scattered Clouds,190,2013-07-09 18:54:00
3:54 PM,88.0,72.0,59,30.14,10.0,SSW,9.2,-,N/A,,Partly Cloudy,200,2013-07-09 19:54:00
4:54 PM,89.1,73.0,59,30.13,10.0,South,9.2,-,N/A,,Clear,180,2013-07-09 20:54:00
5:54 PM,84.0,73.0,69,30.13,10.0,SSW,8.1,-,N/A,,Clear,200,2013-07-09 21:54:00
6:54 PM,82.0,73.9,76,30.13,10.0,South,8.1,-,N/A,,Clear,190,2013-07-09 22:54:00
7:54 PM,81.0,75.0,82,30.13,10.0,SSW,8.1,-,0.00,,Partly Cloudy,200,2013-07-09 23:54:00
8:54 PM,80.1,73.9,81,30.14,10.0,SSW,8.1,-,0.00,Rain,Light Rain,200,2013-07-10 00:54:00
9:54 PM,80.1,73.9,81,30.14,10.0,South,8.1,-,0.00,,Clear,180,2013-07-10 01:54:00
10:54 PM,79.0,73.9,84,30.17,10.0,South,4.6,-,N/A,,Clear,170,2013-07-10 02:54:00
11:54 PM,79.0,73.0,82,30.16,10.0,SSW,8.1,-,N/A,,Overcast,210,2013-07-10 03:54:00